period_start,C,m1,H,J0,J1,J2,J3,J4,J5,JA,JB,JC,JD,JJ,JK,JN,#
2015-08-18 00:04:16,0.01,0.34,0.00,27.44,31.22,33.46,4.70,24.36,1013.28,2023.85,3323.03,3143.99,3412.14,350.58,341.99,23.93,0000 0000 0000 0000 000000
2015-08-18 00:09:17,-0.01,0.34,0.00,27.45,31.22,33.48,4.66,24.34,1013.23,2023.84,3323.04,3143.99,3412.14,350.01,341.36,23.96,0000 0000 0000 0000 000000
2015-08-18 00:14:18,0.01,0.34,0.00,27.46,31.22,33.46,4.70,24.38,1013.26,2023.88,3323.03,3143.99,3412.14,349.96,341.10,23.99,0000 0000 0000 0000 000000
2015-08-18 00:19:19,-0.00,0.34,0.00,27.47,31.21,33.44,4.67,24.36,1013.33,2023.94,3323.04,3143.99,3412.23,350.17,341.34,24.02,0000 0000 0000 0000 000000
2015-08-18 00:24:20,0.00,0.34,0.00,27.47,31.21,33.44,4.70,24.32,1013.40,2023.96,3323.05,3143.99,3412.18,350.23,341.67,24.04,0000 0000 0000 0000 000000
2015-08-18 00:29:22,-0.01,0.34,0.00,27.49,31.21,33.43,4.59,24.28,1013.55,2023.95,3323.15,3143.99,3412.29,349.43,340.82,24.07,0000 0000 0000 0000 000000
2015-08-18 00:34:23,-0.01,0.34,0.00,27.50,31.22,33.43,4.74,24.38,1013.64,2023.88,3323.05,3143.99,3412.10,350.47,341.95,24.10,0000 0000 0000 0000 000000
2015-08-18 00:39:24,-0.04,0.34,0.00,27.17,31.22,33.51,4.79,24.39,1013.51,2023.72,3323.01,3143.98,3412.03,350.69,342.54,24.13,0000 0000 0000 0000 000000
2015-08-18 00:44:25,0.04,0.34,0.00,25.26,31.20,33.39,4.64,24.31,1013.62,2023.83,3323.00,3143.99,3412.19,349.35,343.39,24.16,0000 0000 0000 0000 000000
2015-08-18 00:49:26,-0.00,0.34,0.00,24.34,31.16,32.86,4.75,24.32,1013.67,2023.96,3323.00,3144.03,3412.86,350.05,344.94,24.19,0000 0000 0000 0000 000000
2015-08-18 00:54:27,-0.03,0.34,0.00,24.02,31.09,32.44,4.79,24.22,1013.69,2023.99,3323.00,3144.73,3413.00,349.96,345.37,24.22,0000 0000 0000 0000 000000
2015-08-18 00:59:28,-0.03,0.33,0.00,23.70,31.02,32.13,4.77,24.31,1013.69,2024.06,3323.44,3145.03,3413.73,349.80,345.58,24.25,0000 0000 0000 0000 000000
2015-08-18 01:04:30,0.07,0.34,0.00,23.37,30.93,31.87,4.76,24.38,1013.68,2024.69,3323.97,3145.75,3414.10,350.32,346.46,24.28,0000 0000 0000 0000 000000
2015-08-18 01:09:31,-0.02,0.34,0.00,23.24,30.84,31.62,4.72,24.44,1013.68,2024.99,3324.24,3146.15,3414.92,350.25,346.60,24.31,0000 0000 0000 0000 000000
2015-08-18 01:14:32,-0.05,0.33,0.00,22.86,30.74,31.42,4.77,24.59,1013.65,2025.06,3324.93,3146.92,3415.42,349.94,346.84,24.34,0000 0000 0000 0000 000000
2015-08-18 01:19:33,0.09,0.34,0.00,22.78,30.63,31.29,4.79,24.69,1013.69,2025.73,3325.14,3147.31,3416.04,350.09,346.92,24.37,0000 0000 0000 0000 000000
2015-08-18 01:24:34,-0.04,0.34,0.00,23.12,30.53,31.09,4.68,24.68,1013.69,2026.00,3325.94,3148.01,3416.88,349.82,346.55,24.40,0000 0000 0000 0000 000000
2015-08-18 01:29:36,0.00,0.33,0.00,23.06,30.43,31.00,4.82,24.92,1013.68,2026.34,3326.41,3148.79,3417.48,349.73,346.40,24.43,0000 0000 0000 0000 000000
2015-08-18 01:34:37,0.04,0.34,0.00,23.10,30.33,30.94,4.70,24.93,1013.68,2026.96,3326.96,3149.20,3418.02,349.64,346.52,24.46,0000 0000 0000 0000 000000
2015-08-18 01:39:38,-0.05,0.34,0.00,23.33,30.24,30.88,4.76,24.92,1013.69,2027.06,3327.33,3149.96,3418.85,350.19,346.78,24.48,0000 0000 0000 0000 000000
2015-08-18 01:44:39,0.07,0.34,0.00,23.30,30.16,30.86,4.75,24.88,1013.69,2027.86,3328.01,3150.49,3419.46,349.65,346.02,24.51,0000 0000 0000 0000 000000
2015-08-18 01:49:41,-0.03,0.34,0.00,23.55,30.08,30.77,4.76,24.98,1013.70,2028.00,3328.60,3151.00,3420.02,350.24,346.24,24.54,0000 0000 0000 0000 000000
2015-08-18 01:54:42,0.01,0.34,0.00,23.53,30.00,30.79,4.79,24.95,1013.70,2028.28,3329.00,3151.59,3420.72,350.26,346.28,24.57,0000 0000 0000 0000 000000
2015-08-18 01:59:43,0.05,0.34,0.00,23.59,29.93,30.70,4.77,25.03,1013.70,2028.93,3329.51,3151.99,3421.02,350.29,346.32,24.60,0000 0000 0000 0000 000000
2015-08-18 02:04:44,-0.05,0.34,0.00,23.64,29.86,30.74,4.77,25.06,1013.69,2028.99,3329.96,3152.35,3421.73,350.11,345.82,24.63,0000 0000 0000 0000 000000
2015-08-18 02:09:45,0.06,0.34,0.00,23.61,29.79,30.76,4.73,25.14,1013.70,2029.34,3330.19,3152.96,3422.05,349.94,345.85,24.66,0000 0000 0000 0000 000000
2015-08-18 02:14:47,-0.01,0.34,0.00,23.48,29.74,30.69,4.75,25.19,1013.71,2029.92,3330.92,3153.32,3422.82,349.90,346.07,24.69,0000 0000 0000 0000 000000
2015-08-18 02:19:48,-0.01,0.34,0.00,23.33,29.67,30.65,4.71,25.13,1013.75,2029.99,3330.99,3153.95,3423.03,349.54,345.95,24.72,0000 0000 0000 0000 000000
2015-08-18 02:24:49,-0.02,0.34,0.00,23.35,29.61,30.59,4.76,25.23,1013.89,2030.08,3331.37,3154.07,3423.82,349.99,346.43,24.75,0000 0000 0000 0000 000000
2015-08-18 02:29:50,0.07,0.34,0.00,23.39,29.55,30.55,4.76,25.18,1014.08,2030.79,3331.97,3154.86,3423.99,349.94,346.24,24.78,0000 0000 0000 0000 000000
2015-08-18 02:34:51,-0.01,0.34,0.00,23.39,29.49,30.53,4.77,25.26,1014.13,2030.98,3332.00,3154.99,3424.39,349.70,346.06,24.81,0000 0000 0000 0000 000000
2015-08-18 02:39:53,-0.04,0.34,0.00,23.30,29.43,30.55,4.80,25.32,1014.17,2031.02,3332.33,3155.30,3424.96,349.93,346.22,24.84,0000 0000 0000 0000 000000
2015-08-18 02:44:54,0.07,0.34,0.00,23.16,29.38,30.48,4.80,25.18,1014.17,2031.53,3332.97,3155.95,3425.18,350.57,347.05,24.87,0000 0000 0000 0000 000000
2015-08-18 02:49:55,0.01,0.34,0.00,22.96,29.32,30.37,4.76,25.32,1014.17,2031.94,3333.00,3156.02,3425.86,350.09,347.07,24.89,0000 0000 0000 0000 000000
2015-08-18 02:54:56,-0.05,0.34,0.00,22.62,29.26,30.25,4.76,25.32,1014.16,2031.99,3333.42,3156.67,3426.03,350.01,347.27,24.92,0000 0000 0000 0000 000000
2015-08-18 02:59:57,-0.02,0.34,0.00,22.53,29.19,30.18,4.81,25.23,1014.17,2032.04,3333.97,3157.01,3426.84,350.17,347.69,24.95,0000 0000 0000 0000 000000
2015-08-18 03:04:59,0.07,0.34,0.00,22.58,29.12,30.14,4.77,25.34,1014.18,2032.68,3334.23,3157.72,3427.11,350.04,347.36,24.98,0000 0000 0000 0000 000000
2015-08-18 03:10:00,-0.02,0.34,0.00,22.72,29.05,30.13,4.80,25.24,1014.18,2032.98,3334.94,3158.01,3427.89,350.48,347.64,25.01,0000 0000 0000 0000 000000
2015-08-18 03:15:01,-0.03,0.34,0.00,22.82,28.99,30.14,4.81,25.22,1014.18,2033.00,3335.06,3158.49,3428.06,350.30,347.22,25.04,0000 0000 0000 0000 000000
2015-08-18 03:20:03,0.02,0.34,0.00,23.01,28.93,30.16,4.79,25.33,1014.18,2033.31,3335.78,3158.98,3428.78,349.59,346.56,25.07,0000 0000 0000 0000 000000
2015-08-18 03:25:04,0.06,0.34,0.00,23.04,28.87,30.18,4.78,25.42,1014.18,2033.91,3336.00,3159.06,3429.00,350.12,346.99,25.10,0000 0000 0000 0000 000000
2015-08-18 03:30:05,-0.04,0.34,0.00,22.89,28.82,30.10,4.78,25.40,1014.18,2033.98,3336.08,3159.62,3429.27,349.73,346.57,25.13,0000 0000 0000 0000 000000
2015-08-18 03:35:06,-0.03,0.34,0.00,22.67,28.77,30.00,4.77,25.53,1014.18,2034.01,3336.73,3159.98,3429.94,349.58,346.81,25.16,0000 0000 0000 0000 000000
2015-08-18 03:40:07,0.01,0.34,0.00,22.63,28.71,29.99,4.83,25.46,1014.18,2034.13,3336.98,3160.13,3430.02,350.25,347.48,25.19,0000 0000 0000 0000 000000
2015-08-18 03:45:08,0.06,0.34,0.00,22.72,28.66,29.96,4.77,25.42,1014.18,2034.84,3337.10,3160.87,3430.72,350.24,347.44,25.22,0000 0000 0000 0000 000000
2015-08-18 03:50:10,-0.02,0.34,0.00,22.83,28.61,29.96,4.78,25.49,1014.18,2034.99,3337.78,3161.00,3430.99,350.14,347.17,25.25,0000 0000 0000 0000 000000
2015-08-18 03:55:11,-0.02,0.34,0.00,23.02,28.56,30.00,4.79,25.33,1014.18,2035.00,3337.99,3161.18,3431.27,350.36,347.07,25.27,0000 0000 0000 0000 000000
2015-08-18 04:00:12,-0.02,0.34,0.00,23.27,28.52,30.24,4.71,25.43,1014.18,2035.12,3338.02,3161.87,3431.93,349.75,346.35,25.30,0000 0000 0000 0000 000000
2015-08-18 04:05:13,0.05,0.34,0.00,23.21,28.48,30.47,4.79,25.68,1014.18,2035.51,3338.10,3161.98,3431.99,349.79,346.20,25.33,0000 0000 0000 0000 000000
2015-08-18 04:10:15,0.05,0.34,0.00,23.27,28.44,30.55,4.77,25.51,1014.18,2035.90,3338.57,3162.00,3431.99,349.89,346.52,25.36,0000 0000 0000 0000 000000
2015-08-18 04:15:16,-0.01,0.34,0.00,23.11,28.41,30.34,4.87,25.73,1014.18,2035.98,3338.91,3162.08,3432.09,350.62,347.28,25.39,0000 0000 0000 0000 000000
2015-08-18 04:20:17,-0.02,0.34,0.00,22.55,28.36,29.80,4.80,25.63,1014.18,2035.99,3338.91,3162.58,3432.20,349.87,347.20,25.42,0000 0000 0000 0000 000000
2015-08-18 04:25:19,-0.01,0.34,0.00,21.99,28.32,29.45,4.76,25.65,1014.18,2035.99,3338.92,3162.98,3432.44,349.44,347.40,25.45,0000 0000 0000 0000 000000
2015-08-18 04:30:20,-0.01,0.34,0.00,21.89,28.28,29.05,4.82,25.75,1014.18,2036.02,3338.98,3162.99,3432.94,350.14,348.38,25.48,0000 0000 0000 0000 000000
2015-08-18 04:35:21,0.06,0.34,0.00,21.65,28.22,28.66,4.90,25.76,1014.15,2036.31,3338.99,3163.13,3432.99,350.63,349.09,25.51,0000 0000 0000 0000 000000
2015-08-18 04:40:23,0.03,0.34,0.00,21.45,28.16,28.36,4.80,25.80,1014.14,2036.90,3339.00,3163.84,3433.21,349.99,348.59,25.54,0000 0000 0000 0000 000000
2015-08-18 04:45:24,-0.02,0.34,0.00,21.40,28.09,28.16,4.85,25.85,1014.16,2036.99,3339.41,3164.00,3433.94,350.34,348.99,25.57,0000 0000 0000 0000 000000
2015-08-18 04:50:25,-0.04,0.34,0.00,21.40,28.02,28.04,4.77,25.76,1014.15,2037.01,3339.96,3164.61,3434.15,350.26,349.12,25.60,0000 0000 0000 0000 000000
2015-08-18 04:55:26,0.06,0.34,0.00,21.28,27.94,27.81,4.75,25.85,1014.07,2037.38,3340.14,3164.99,3434.87,349.95,348.87,25.63,0000 0000 0000 0000 000000
2015-08-18 05:00:28,-0.01,0.34,0.00,21.18,27.86,27.67,4.81,25.82,1014.12,2037.96,3340.89,3165.45,3435.14,350.27,349.25,25.66,0000 0000 0000 0000 000000
2015-08-18 05:05:29,-0.02,0.34,0.00,21.42,27.78,27.72,4.70,25.85,1014.17,2037.99,3341.00,3165.97,3435.91,349.63,348.17,25.68,0000 0000 0000 0000 000000
2015-08-18 05:10:30,0.01,0.34,0.00,21.29,27.70,27.57,4.76,25.89,1014.12,2038.24,3341.51,3166.33,3436.12,349.61,348.48,25.71,0000 0000 0000 0000 000000
2015-08-18 05:15:32,0.04,0.34,0.00,21.31,27.62,27.52,4.74,25.88,1014.17,2038.92,3341.98,3166.95,3436.85,350.03,348.90,25.74,0000 0000 0000 0000 000000
2015-08-18 05:20:33,0.00,0.34,0.00,21.26,27.55,27.42,4.81,25.86,1014.15,2039.00,3342.04,3167.02,3437.01,349.81,348.64,25.77,0000 0000 0000 0000 000000
2015-08-18 05:25:34,0.03,0.34,0.00,21.24,27.47,27.39,4.78,25.88,1014.10,2039.44,3342.79,3167.42,3437.39,350.06,348.97,25.80,0000 0000 0000 0000 000000
2015-08-18 05:30:35,0.02,0.34,0.00,21.29,27.40,27.38,4.80,25.81,1014.17,2039.96,3343.01,3167.97,3437.95,349.73,348.63,25.83,0000 0000 0000 0000 000000
2015-08-18 05:35:36,-0.02,0.34,0.00,21.28,27.33,27.34,4.77,25.72,1014.17,2039.99,3343.42,3168.10,3438.13,349.77,348.60,25.86,0000 0000 0000 0000 000000
2015-08-18 06:46:16,0.00,0.35,0.00,23.22,26.96,28.93,4.73,25.58,1014.66,2042.04,3345.99,3170.97,3441.00,350.16,347.05,26.27,0000 0000 0000 0000 000000
2015-08-18 06:51:17,0.01,0.35,0.00,23.51,27.00,29.29,4.75,25.57,1014.66,2042.01,3345.98,3170.73,3440.98,349.80,346.13,26.30,0000 0000 0000 0000 000000
2015-08-18 06:56:18,0.03,0.35,0.00,23.44,27.03,29.11,4.77,25.37,1014.66,2042.01,3345.89,3170.20,3440.74,349.82,346.17,26.33,0000 0000 0000 0000 000000
2015-08-18 07:01:19,0.04,0.35,0.00,23.80,27.08,29.63,4.74,25.26,1014.68,2042.00,3345.11,3169.95,3439.89,349.76,345.89,26.36,0000 0000 0000 0000 000000
2015-08-18 07:06:21,0.05,0.35,0.00,23.81,27.13,29.54,4.72,25.24,1014.70,2041.99,3344.99,3169.25,3439.06,349.56,345.82,26.39,0000 0000 0000 0000 000000
2015-08-18 07:11:22,-0.10,0.35,0.00,23.73,27.19,29.51,4.77,25.31,1014.71,2041.51,3344.77,3169.00,3438.88,350.22,346.34,26.42,0000 0000 0000 0000 000000
2015-08-18 07:16:23,0.03,0.35,0.00,23.76,27.25,29.61,4.74,25.33,1014.76,2041.05,3344.10,3168.70,3438.16,350.25,346.34,26.45,0000 0000 0000 0000 000000
2015-08-18 07:21:24,0.03,0.35,0.00,23.78,27.30,29.50,4.73,25.48,1014.73,2041.00,3343.76,3168.04,3437.90,350.28,346.44,26.48,0000 0000 0000 0000 000000
2015-08-18 07:26:25,0.03,0.35,0.00,23.91,27.36,29.58,4.71,25.30,1014.71,2040.96,3343.19,3167.94,3437.26,350.43,346.48,26.51,0000 0000 0000 0000 000000
2015-08-18 07:31:27,-0.05,0.35,0.00,24.05,27.41,29.89,4.77,25.41,1014.75,2040.64,3343.00,3167.31,3436.99,350.02,345.89,26.54,0000 0000 0000 0000 000000
2015-08-18 07:36:28,-0.03,0.35,0.00,24.06,27.47,29.94,4.68,25.24,1014.79,2040.04,3342.82,3167.00,3436.40,349.54,345.49,26.57,0000 0000 0000 0000 000000
2015-08-18 08:31:05,0.02,0.50,0.07,25.66,28.35,31.06,4.67,25.16,1015.15,2036.82,3296.97,3107.08,3370.51,349.88,344.12,26.88,0000 0000 0000 0000 000000
2015-08-18 08:36:06,-0.01,0.50,0.00,25.80,28.45,31.15,4.76,25.11,1015.15,2036.11,3296.11,3106.22,3369.67,350.22,344.15,26.91,0000 0000 0000 0000 000000
2015-08-18 08:41:08,0.08,0.50,0.00,25.96,28.55,31.23,4.64,25.10,1015.15,2035.97,3295.23,3105.28,3368.71,349.67,343.38,26.94,0000 0000 0000 0000 000000
2015-08-18 08:46:09,-0.04,0.50,0.00,26.09,28.65,31.36,4.69,25.06,1015.15,2035.24,3294.17,3104.23,3367.58,350.13,343.84,26.97,0000 0000 0000 0000 000000
2015-08-18 08:51:10,0.06,0.50,0.00,26.18,28.75,31.45,4.73,25.16,1015.15,2034.99,3293.40,3103.53,3366.81,350.21,343.72,27.00,0000 0000 0000 0000 000000
2015-08-18 08:56:12,-0.05,0.50,0.00,26.26,28.86,31.56,4.69,25.18,1015.16,2034.46,3292.64,3102.71,3365.83,349.69,343.27,27.03,0000 0000 0000 0000 000000
2015-08-18 09:01:13,0.03,0.50,0.00,26.33,28.96,31.68,4.66,25.05,1015.17,2033.99,3291.84,3101.86,3364.89,349.82,343.18,27.06,0000 0000 0000 0000 000000
2015-08-18 09:06:14,-0.03,0.50,0.00,26.38,29.06,31.85,4.69,25.03,1015.17,2033.44,3290.96,3100.98,3363.94,349.64,342.72,27.09,0000 0000 0000 0000 000000
2015-08-18 09:11:16,0.06,0.50,0.00,26.40,29.17,31.95,4.64,24.88,1015.20,2033.00,3290.02,3100.07,3362.95,349.90,342.99,27.12,0000 0000 0000 0000 000000
2015-08-18 09:16:17,0.02,0.50,0.00,26.41,29.27,32.12,4.63,24.87,1015.19,2032.71,3289.11,3099.23,3362.03,349.83,343.14,27.15,0000 0000 0000 0000 000000
2015-08-18 09:21:18,0.03,0.50,0.00,26.44,29.36,32.28,4.70,25.38,1015.18,2032.04,3288.09,3098.17,3360.81,349.70,342.96,27.18,0000 0000 0000 0000 000000
2015-08-18 09:26:20,0.08,0.51,0.00,26.33,29.46,32.39,4.62,25.35,1015.17,2031.98,3287.11,3097.15,3359.79,349.14,342.27,27.21,0000 0000 0000 0000 000000
2015-08-18 09:31:21,-0.02,0.51,0.00,26.30,29.54,32.41,4.68,25.32,1015.18,2031.48,3286.22,3096.37,3358.93,350.09,343.44,27.24,0000 0000 0000 0000 000010
2015-08-18 09:36:22,0.01,0.51,0.00,26.31,29.62,32.52,4.69,25.27,1015.28,2031.03,3285.68,3095.86,3358.07,349.79,342.97,27.27,0000 0000 0000 0000 000010
2015-08-18 09:41:23,0.08,0.51,0.00,25.93,29.70,32.72,4.65,25.28,1015.32,2030.99,3284.87,3095.04,3357.30,349.66,343.52,27.29,0000 0000 0000 0000 000010
2015-08-18 09:46:24,0.06,0.51,0.00,26.03,29.76,32.79,7.44,32.49,1015.23,2030.72,3283.32,3093.98,3356.62,435.49,427.57,27.33,0000 0000 0000 0000 000010
2015-08-18 09:51:25,0.01,0.49,0.00,25.90,29.81,32.69,6.90,29.70,1015.32,2030.08,3287.16,3096.77,3361.25,401.95,394.01,0.00,0000 0000 0000 0000 000012
2015-08-18 09:56:26,0.06,0.00,0.00,25.86,29.86,32.60,7.93,34.52,1015.38,2030.44,3429.01,3209.89,3524.15,449.49,441.72,0.01,0000 0000 0000 0000 000000
2015-08-18 10:01:27,0.06,0.00,0.00,26.08,29.91,32.89,7.82,34.51,1015.38,2030.05,3425.43,3208.21,3522.00,449.68,441.51,0.04,0000 0000 0000 0000 000000
2015-08-18 10:06:29,0.06,0.00,0.00,26.23,29.95,32.94,7.88,34.49,1015.31,2030.00,3424.14,3207.22,3520.43,450.14,441.65,0.08,0000 0000 0000 0000 000000
2015-08-18 10:11:30,0.07,0.00,0.00,26.34,30.00,32.79,7.93,34.50,1015.23,2029.99,3422.95,3206.37,3519.23,450.12,441.48,0.12,0000 0000 0000 0000 000000
2015-08-18 10:16:31,0.05,0.00,0.00,26.41,30.04,32.62,7.91,34.36,1015.20,2029.85,3422.02,3205.75,3518.20,449.99,441.41,0.16,0000 0000 0000 0000 000000
2015-08-18 10:21:32,0.01,0.00,0.00,26.42,30.09,32.61,7.87,34.45,1015.26,2029.26,3421.13,3205.01,3517.20,449.72,441.04,0.20,0000 0000 0000 0000 000000
2015-08-18 10:26:34,0.03,0.01,0.00,26.45,30.13,32.64,7.90,34.50,1015.40,2029.02,3420.29,3204.28,3516.23,449.95,441.15,0.23,0000 0000 0000 0000 000000
2015-08-18 10:31:35,0.02,0.01,0.00,26.47,30.18,32.67,7.85,34.49,1015.39,2029.00,3419.81,3203.98,3515.64,449.96,441.30,0.27,0000 0000 0000 0000 000000
2015-08-18 10:36:36,0.05,0.01,0.00,26.49,30.22,32.70,7.91,34.50,1015.54,2028.99,3419.04,3203.23,3514.89,450.06,441.43,0.31,0000 0000 0000 0000 000000
2015-08-18 10:41:38,0.02,0.01,0.00,26.53,30.26,32.70,7.90,34.45,1015.61,2028.90,3418.30,3202.97,3514.05,449.97,441.22,0.35,0000 0000 0000 0000 000000
2015-08-18 10:46:39,-0.01,0.01,0.00,26.56,30.31,32.75,7.95,34.58,1015.58,2028.40,3417.74,3202.21,3513.29,450.14,441.40,0.38,0000 0000 0000 0000 000000
2015-08-18 10:51:40,0.00,0.01,0.00,26.62,30.35,32.75,7.88,34.30,1015.54,2028.06,3417.03,3201.85,3512.70,449.82,440.99,0.42,0000 0000 0000 0000 000000
2015-08-18 10:56:41,0.05,0.01,0.00,26.69,30.40,32.92,7.83,34.27,1015.61,2028.00,3416.31,3201.08,3511.97,449.72,440.91,0.46,0000 0000 0000 0000 000000
2015-08-18 11:01:42,0.02,0.01,0.00,26.75,30.45,33.10,7.85,34.30,1015.64,2028.00,3415.89,3200.87,3511.20,449.80,440.80,0.50,0000 0000 0000 0000 000000
2015-08-18 11:06:43,0.04,0.01,0.00,26.74,30.50,33.13,7.84,34.23,1015.64,2027.94,3415.09,3200.11,3510.74,450.04,441.15,0.53,0000 0000 0000 0000 000000
2015-08-18 11:11:45,-0.03,0.01,0.00,26.73,30.55,33.19,7.92,34.22,1015.65,2027.56,3414.57,3199.95,3510.03,450.20,441.12,0.57,0000 0000 0000 0000 000000
2015-08-18 11:16:46,-0.00,0.01,0.00,26.80,30.59,33.22,7.85,34.21,1015.66,2027.08,3414.01,3199.24,3509.51,450.12,440.98,0.61,0000 0000 0000 0000 000000
2015-08-18 11:21:47,0.02,0.01,0.00,26.81,30.62,33.21,7.80,34.20,1015.68,2027.00,3413.66,3199.00,3509.00,449.71,440.73,0.65,0000 0000 0000 0000 000000
2015-08-18 11:26:48,0.02,0.01,0.00,26.74,30.65,33.45,7.87,34.23,1015.71,2027.00,3413.01,3198.95,3508.51,450.07,441.09,0.69,0000 0000 0000 0000 000000
2015-08-18 11:31:49,0.03,0.02,0.00,26.66,30.67,33.61,7.92,34.19,1015.87,2027.00,3412.69,3198.44,3508.03,450.12,441.20,0.72,0000 0000 0000 0000 000000
2015-08-18 11:36:51,0.02,0.02,0.00,26.62,30.69,33.66,7.87,34.14,1015.88,2026.97,3412.04,3198.02,3507.87,449.89,441.15,0.76,0000 0000 0000 0000 000000
2015-08-18 11:41:52,0.01,0.02,0.00,26.59,30.70,33.68,7.91,34.19,1015.82,2026.92,3411.83,3197.97,3507.11,449.78,440.92,0.80,0000 0000 0000 0000 000000
2015-08-18 11:46:53,-0.01,0.02,0.00,26.53,30.72,33.64,7.93,34.17,1015.96,2026.66,3411.09,3197.57,3506.95,450.13,441.54,0.84,0000 0000 0000 0000 000000
2015-08-18 11:51:54,-0.01,0.02,0.00,26.50,30.72,33.63,7.93,34.23,1015.71,2026.27,3410.86,3197.02,3506.20,450.18,441.56,0.87,0000 0000 0000 0000 000000
2015-08-18 11:56:56,-0.00,0.02,0.00,26.50,30.73,33.61,7.93,34.38,1015.72,2026.04,3410.10,3196.96,3505.99,450.50,441.79,0.91,0000 0000 0000 0000 000000
2015-08-18 12:01:57,0.02,0.02,0.00,26.50,30.75,33.64,7.85,34.15,1015.68,2026.01,3410.00,3196.72,3505.59,450.01,441.49,0.95,0000 0000 0000 0000 000000
2015-08-18 12:06:58,0.03,0.02,0.00,26.52,30.75,33.58,7.89,34.22,1015.65,2026.00,3409.73,3196.12,3505.05,449.97,441.32,0.99,0000 0000 0000 0000 000000
2015-08-18 12:12:00,0.01,0.02,0.00,26.50,30.75,33.50,7.81,34.13,1015.65,2026.00,3409.04,3196.00,3505.00,449.52,440.92,1.02,0000 0000 0000 0000 000000
2015-08-18 12:17:01,0.00,0.02,0.00,26.46,30.76,33.46,7.86,34.22,1015.65,2026.00,3409.00,3196.00,3504.78,449.81,441.11,1.06,0000 0000 0000 0000 000000
2015-08-18 12:22:02,0.02,0.02,0.00,26.45,30.77,33.44,7.94,34.26,1015.64,2026.00,3408.79,3195.96,3504.12,450.09,441.48,1.10,0000 0000 0000 0000 000000
2015-08-18 12:27:03,0.03,0.02,0.00,26.44,30.77,33.46,7.95,34.19,1015.64,2025.99,3408.14,3195.56,3504.01,449.88,441.51,1.14,0000 0000 0000 0000 000000
2015-08-18 12:32:04,0.01,0.02,0.00,26.44,30.77,33.49,7.97,34.22,1015.64,2025.99,3407.98,3195.03,3503.92,450.57,441.87,1.17,0000 0000 0000 0000 000000
2015-08-18 12:37:05,0.03,0.02,0.00,26.45,30.77,33.53,7.91,34.15,1015.64,2025.99,3407.69,3195.00,3503.37,450.40,441.65,1.21,0000 0000 0000 0000 000000
2015-08-18 12:42:07,0.00,0.02,0.00,26.44,30.78,33.56,7.88,34.33,1015.64,2025.98,3407.06,3194.95,3503.01,449.90,441.38,1.25,0000 0000 0000 0000 000000
2015-08-18 12:47:08,0.01,0.02,0.00,26.44,30.79,33.46,7.92,34.34,1015.62,2025.99,3406.92,3194.84,3502.92,449.58,441.14,1.29,0000 0000 0000 0000 000000
2015-08-18 12:52:09,0.07,0.03,0.00,26.42,30.80,33.46,7.89,34.23,1015.58,2025.98,3406.07,3193.87,3502.00,450.01,441.51,1.33,0000 0000 0000 0000 000000
2015-08-18 12:57:10,0.01,0.03,0.00,26.38,30.80,33.45,7.85,34.38,1015.51,2025.95,3406.00,3193.52,3501.59,449.88,441.26,1.36,0000 0000 0000 0000 000000
2015-08-18 13:02:11,0.03,0.03,0.00,26.35,30.80,33.53,7.97,34.26,1015.45,2025.88,3405.70,3193.08,3501.05,450.27,441.84,1.40,0000 0000 0000 0000 000000
2015-08-18 13:07:13,0.01,0.03,0.00,26.35,30.80,33.58,7.89,34.22,1015.43,2025.93,3405.09,3193.00,3501.00,449.67,441.27,1.44,0000 0000 0000 0000 000000
2015-08-18 13:12:14,-0.01,0.03,0.00,26.37,30.80,33.55,7.89,34.34,1015.37,2025.84,3405.00,3192.96,3500.68,449.84,441.43,1.48,0000 0000 0000 0000 000000
2015-08-18 13:17:15,0.01,0.03,0.00,26.39,30.80,33.57,7.95,34.30,1015.33,2025.70,3404.86,3192.79,3500.07,450.34,442.03,1.51,0000 0000 0000 0000 000000
2015-08-18 13:22:17,0.01,0.03,0.00,26.42,30.79,33.62,7.90,34.32,1015.19,2025.81,3404.67,3192.58,3500.02,450.08,441.34,1.55,0000 0000 0000 0000 000000
2015-08-18 13:27:18,0.04,0.03,0.00,26.44,30.79,33.62,7.91,34.25,1015.18,2025.88,3404.29,3192.43,3500.00,449.84,441.17,1.59,0000 0000 0000 0000 000000
2015-08-18 13:32:19,0.00,0.03,0.00,26.48,30.78,33.61,7.90,34.33,1015.18,2025.92,3404.02,3192.15,3500.00,450.13,441.20,1.63,0000 0000 0000 0000 000000
2015-08-18 13:37:20,0.00,0.03,0.00,26.50,30.78,33.66,7.86,34.23,1015.18,2025.90,3404.00,3192.05,3500.00,450.08,441.19,1.66,0000 0000 0000 0000 000000
2015-08-18 13:42:21,-0.01,0.03,0.00,26.53,30.79,33.66,7.88,34.27,1015.19,2025.82,3404.00,3192.03,3499.94,449.92,441.25,1.70,0000 0000 0000 0000 000000
2015-08-18 13:47:22,0.01,0.03,0.00,26.56,30.80,33.68,7.94,34.25,1015.19,2025.78,3403.73,3192.01,3499.44,449.77,440.94,1.74,0000 0000 0000 0000 000000
2015-08-18 13:52:23,0.02,0.03,0.00,26.60,30.80,33.70,7.81,34.27,1015.21,2025.79,3403.17,3192.00,3499.04,449.36,440.35,1.78,0000 0000 0000 0000 000000
2015-08-18 13:57:24,0.01,0.03,0.00,26.61,30.80,33.73,7.92,34.27,1015.19,2025.77,3403.00,3191.98,3499.00,450.07,441.06,1.81,0000 0000 0000 0000 000000
2015-08-18 14:02:26,-0.01,0.03,0.00,26.64,30.82,33.74,7.87,34.22,1015.19,2025.77,3403.00,3191.93,3498.99,450.06,440.88,1.85,0000 0000 0000 0000 000000
2015-08-18 14:07:27,0.02,0.03,0.00,26.68,30.82,33.74,7.87,34.27,1015.16,2025.63,3402.86,3191.54,3498.82,449.98,440.76,1.89,0000 0000 0000 0000 000000
2015-08-18 14:12:28,-0.01,0.03,0.00,26.75,30.84,33.73,7.83,34.18,1015.17,2025.31,3402.17,3191.05,3498.10,449.70,440.63,1.93,0000 0000 0000 0000 000000
2015-08-18 14:17:29,-0.01,0.03,0.00,26.78,30.85,33.71,7.92,34.24,1015.17,2025.14,3402.00,3191.00,3498.00,450.09,440.84,1.97,0000 0000 0000 0000 000000
2015-08-18 14:22:30,0.00,0.03,0.00,26.84,30.87,33.65,7.81,34.10,1015.16,2025.05,3401.81,3190.97,3497.90,449.63,440.32,2.00,0000 0000 0000 0000 000000
2015-08-18 14:27:32,0.03,0.03,0.00,26.88,30.89,33.68,7.84,34.15,1015.15,2025.02,3401.19,3190.76,3497.38,449.73,440.31,2.04,0000 0000 0000 0000 000000
2015-08-18 14:32:33,0.02,0.03,0.00,26.88,30.90,33.70,7.88,34.17,1015.15,2025.02,3401.00,3190.24,3497.03,449.82,440.35,2.08,0000 0000 0000 0000 000000
2015-08-18 14:37:34,0.00,0.03,0.00,26.92,30.92,33.67,7.86,34.08,1015.11,2025.01,3400.99,3190.04,3497.00,450.00,440.48,2.12,0000 0000 0000 0000 000000
2015-08-18 14:42:36,0.02,0.03,0.00,26.95,30.94,33.70,7.91,34.06,1015.10,2025.00,3400.62,3190.00,3496.85,450.52,441.08,2.15,0000 0000 0000 0000 000000
2015-08-18 14:47:37,0.02,0.04,0.00,26.97,30.96,33.70,7.91,34.10,1015.07,2025.00,3400.06,3189.94,3496.14,450.09,440.34,2.19,0000 0000 0000 0000 000000
2015-08-18 14:52:38,0.02,0.04,0.00,27.01,30.97,33.69,7.92,34.11,1015.10,2025.00,3399.98,3189.45,3496.00,450.58,440.68,2.23,0000 0000 0000 0000 000000
2015-08-18 14:57:39,0.02,0.04,0.00,26.98,31.00,33.74,7.88,34.18,1015.00,2025.00,3399.71,3189.04,3495.97,449.93,440.21,2.27,0000 0000 0000 0000 000000